Flag for Canada Weather past 2 weeks in Barrie, Ontario, Canada

Now
25 °F

Passing clouds.


Feels Like: 25 °F
Forecast: 37 / 55 °F
Wind: No wind

Location: Borden

Current Time: Oct 24, 2014 at 7:33:20 AM

Latest Report: Oct 24, 2014 at 7:00 AM


Visibility: 9 mi

Pressure: 30.08 "Hg

Humidity: 100%

Dew point: 25 °F

Location of BarrieLocation

Historic Weather in Barrie — Graph

°F

Barrie temperature yesterday

Maximum temperature yesterday: 57 °F (at 2:00 PM)
Minimum temperature yesterday: 28 °F (at 7:01 AM)
Average temperature yesterday: 40 °F

Past Weeks' High & Low Weather Summary

 TemperatureHumidityPressure
High73 °F (Oct 14, 1:00 PM)100% (Oct 10, 10:00 PM)30.32 "Hg (Oct 10, 10:00 PM)
Low25 °F (Oct 24, 6:00 AM)44% (Oct 12, 2:00 PM)29.43 "Hg (Oct 17, 5:03 PM)
Average47 °F89%29.94 "Hg
* Reported Oct 9 6:00 AM — Oct 24 6:00 AM, Barrie, Weather by CustomWeather, © 2014

Note: Actual official high and low records may vary slightly from our data, if they occured in-between our weather recording intervals... More about our weather records

Advertising

Barrie weather history for previous 24 hours

 ConditionsComfort  
Time TempWeatherWind HumidityBarometerVisibility
6:00 AM
Oct 24
25 °FClear.No wind100%30.07 "Hg9 mi
5:01 AM27 °FClear.2 mph93%30.04 "Hg1 mi
4:01 AM27 °FClear.2 mph100%30.04 "Hg9 mi
3:00 AM28 °FClear.No wind100%30.06 "Hg4 mi
2:00 AM30 °FClear.3 mph100%30.06 "Hg9 mi
1:00 AM28 °FClear.No wind100%30.07 "Hg1 mi
12:00 AM30 °FClear.No wind100%30.08 "Hg9 mi
11:59 PM
Oct 23
30 °FClear.No wind100%30.06 "Hg9 mi
11:00 PM32 °FDense fog.2 mph100%30.08 "Hg1 mi
10:57 PM32 °FPassing clouds.No wind100%30.06 "Hg1 mi
10:03 PM36 °FClear.No wind100%30.07 "Hg2 mi
9:00 PM39 °FClear.2 mph100%30.10 "Hg9 mi
8:00 PM43 °FClear.5 mph100%30.11 "Hg9 mi
7:00 PM45 °FSunny.6 mph93%30.11 "Hg9 mi
6:00 PM50 °FSunny.3 mph76%30.11 "Hg9 mi
5:00 PM54 °FSunny.7 mph63%30.10 "Hg9 mi
4:00 PM55 °FSunny.12 mph63%30.11 "Hg9 mi
3:00 PM57 °FSunny.8 mph59%30.12 "Hg9 mi
2:00 PM57 °FSunny.9 mph63%30.14 "Hg9 mi
1:00 PM55 °FSunny.12 mph67%30.16 "Hg9 mi
12:00 PM55 °FSunny.7 mph63%30.17 "Hg9 mi
11:00 AM54 °FSunny.5 mph77%30.19 "Hg9 mi
10:00 AM46 °FSunny.5 mph100%30.20 "Hg9 mi
9:00 AM37 °FSunny.No wind100%30.21 "Hg9 mi
8:00 AM28 °FClear.No wind100%30.22 "Hg2 mi
7:52 AM28 °FClear.No wind100%30.20 "Hg1 mi
7:01 AM28 °FPassing clouds.No wind100%30.20 "Hg1 mi
Weather by CustomWeather, © 2014

See weather overviewHow to use our weather pages